Regional Weather Roundup
Issued by NWS Bismarck, ND

Home | Current Version | Previous Version | Text Only | Print | Product List | Glossary On
Versions: 1 2 3 4 5 6 7 8 9 10 11 12 13 14 15 16 17 18 19 20 21 22 23 24 25 26 27 28 29 30 31 32 33 34 35 36 37 38 39 40 41 42 43 44 45 46 47 48 49 50
376
ASUS43 KBIS 250102
RWRBIS

NWR BROADCAST TEXT
NATIONAL WEATHER SERVICE BISMARCK ND
800 PM CDT MON APR 24 2017

NOTE: "FAIR" INDICATES FEW OR NO CLOUDS BELOW 12,000 FEET WITH NO
SIGNIFICANT WEATHER AND/OR OBSTRUCTIONS TO VISIBILITY.


CITY           SKY/WX    TMP DP  RH WIND       PRES   REMARKS
WILLISTON      CLOUDY    33  27  78 NE14      29.77R
MINOT          CLOUDY    34  28  79 NE14      29.75S
MINOT AFB      CLOUDY    33  26  77 NE14      29.75S
BISMARCK       CLOUDY    36  30  79 N13       29.70F
DICKINSON      CLOUDY    33  28  81 NE16      29.67R
GARRISON         N/A     32  28  85 NE9       29.72S
HETTINGER ARPT CLOUDY    38  33  82 NE16      29.66S
JAMESTOWN      CLOUDY    34  33  96 N15       29.64R
HAZEN          MOCLDY    34  28  80 NE10G16   29.74S
LINTON           N/A     36  36 100 N15       29.67F
MANDAN         CLOUDY    34  30  86 N14       29.69F
STANLEY        CLOUDY    28  30 100 NE10G17   29.78R WCI  19
TIOGA          CLOUDY    28  28 100 NE17      29.78R WCI  16
WATFORD CITY   CLOUDY    32  28  86 NE12      29.74S
$$

CITY           SKY/WX    TMP DP  RH WIND       PRES   REMARKS
GRAND FORKS    CLOUDY    36  34  92 N17       29.64R
GRAND FORKS AF CLOUDY    33  33  99 N16       29.65R
DEVILS LAKE    CLOUDY    32  29  88 N22       29.70R WCI  19
FARGO          CLOUDY    40  39  97 N20       29.56R
CAVALIER       CLOUDY    32  30  93 N15       29.72R
GRAFTON        CLOUDY    32  32 100 N18G24    29.69F FOG
GWINNER        CLOUDY    39  36  87 MISG      29.59R
LANGDON        DRIZZLE   32  32 100 NE18G25   29.72R
ROLLA          CLOUDY    30  30 100 NE17      29.75R WCI  18
$$

CITY           SKY/WX    TMP DP  RH WIND       PRES   REMARKS
ABERDEEN       CLOUDY    41  33  73 N16       29.62R
MOBRIDGE       CLOUDY    42  32  67 N12       29.63S
BUFFALO          N/A     45  39  79 NE15      29.56S
RAPID CITY     FAIR      54  38  54 NE13      29.58S
GLASGOW        FAIR      38  28  67 E22       29.72R
SIDNEY         CLOUDY    35  28  75 NE15      29.74R
WOLF POINT     CLOUDY    36  27  69 NE18      29.75R
GLENDIVE       CLOUDY    37  32  82 NE16      29.70R
MILES CITY     FAIR      50  38  63 E15       29.62R
BAKER          CLOUDY    43  35  73 NE14      29.64S
$$

CITY           SKY/WX    TMP DP  RH WIND       PRES   REMARKS
BILLINGS       PTSUNNY   48  41  76 NE18G26   29.57R
GREAT FALLS    PTSUNNY   49  36  61 NE16      29.59R
$$





USA.gov is the U.S. government's official web portal to all federal, state and local government web resources and services.